HB9EKJ-13 Weather Reports


time (UTC)temp
F
wind
direction
speed
knots
gust
knots
rain 1hr
in
rain 24hr
in
rain mn
in
humidity
%
barometer
mb
20260507172707 59 0.0 0.0 0.00 0.00 0.00 17 1016.0
20260507172208 60 0.0 0.0 0.00 0.00 0.00 17 1016.0
20260507171208 60 0.0 0.0 0.00 0.00 0.00 17 1016.0
20260507165707 61 0.0 0.0 0.00 0.00 0.00 16 1015.0
20260507165207 62 0.0 0.0 0.00 0.00 0.00 16 1015.0
20260507164209 63 0.0 0.0 0.00 0.00 0.00 16 1016.0
20260507163707 62 0.0 0.0 0.00 0.00 0.00 16 1016.0
20260507162708 61 0.0 0.0 0.00 0.00 0.00 16 1016.0
20260507162209 61 0.0 0.0 0.00 0.00 0.00 16 1016.0
20260507161208 61 0.0 0.0 0.00 0.00 0.00 16 1016.0
20260507160707 61 0.0 0.0 0.00 0.00 0.00 16 1016.0
20260507155208 61 0.0 0.0 0.00 0.00 0.00 17 1016.0
20260507154208 61 0.0 0.0 0.00 0.00 0.00 16 1016.0
20260507153707 61 0.0 0.0 0.00 0.00 0.00 16 1016.0
20260507151207 62 0.0 0.0 0.00 0.00 0.00 16 1016.0
20260507145708 62 0.0 0.0 0.00 0.00 0.00 16 1016.0
20260507144209 61 0.0 0.0 0.00 0.00 0.00 16 1016.0
20260507142708 60 0.0 0.0 0.00 0.00 0.00 17 1016.0
20260507141207 60 0.0 0.0 0.00 0.00 0.00 17 1016.0
20260507135708 62 0.0 0.0 0.00 0.00 0.00 16 1016.0
20260507134707 63 0.0 0.0 0.00 0.00 0.00 16 1016.0
20260507134208 63 0.0 0.0 0.00 0.00 0.00 16 1016.0
20260507133208 64 0.0 0.0 0.00 0.00 0.00 15 1016.0
20260507132708 65 0.0 0.0 0.00 0.00 0.00 15 1016.0
20260507131707 64 0.0 0.0 0.00 0.00 0.00 16 1016.0
20260507131208 64 0.0 0.0 0.00 0.00 0.00 16 1016.0
20260507130209 64 0.0 0.0 0.00 0.00 0.00 16 1016.0
20260507124708 64 0.0 0.0 0.00 0.00 0.00 16 1016.0
20260507123208 64 0.0 0.0 0.00 0.00 0.00 16 1016.0
20260507122708 64 0.0 0.0 0.00 0.00 0.00 16 1015.0
20260507121707 65 0.0 0.0 0.00 0.00 0.00 15 1015.0
20260507121208 65 0.0 0.0 0.00 0.00 0.00 15 1016.0
20260507120208 66 0.0 0.0 0.00 0.00 0.00 15 1016.0
20260507114708 64 0.0 0.0 0.00 0.00 0.00 16 1016.0
20260507114209 66 0.0 0.0 0.00 0.00 0.00 15 1016.0
20260507113208 65 0.0 0.0 0.00 0.00 0.00 15 1016.0
20260507112706 65 0.0 0.0 0.00 0.00 0.00 15 1016.0
20260507111208 62 0.0 0.0 0.00 0.00 0.00 16 1016.0
20260507110208 63 0.0 0.0 0.00 0.00 0.00 16 1016.0
20260507105706 64 0.0 0.0 0.00 0.00 0.00 16 1016.0
20260507104708 64 0.0 0.0 0.00 0.00 0.00 15 1016.0
20260507101707 63 0.0 0.0 0.00 0.00 0.00 16 1017.1
20260507093707 64 0.0 0.0 0.00 0.00 0.00 16 1017.1
20260507092208 68 0.0 0.0 0.00 0.00 0.00 15 1017.1
20260507091707 68 0.0 0.0 0.00 0.00 0.00 15 1017.1
20260507090707 65 0.0 0.0 0.00 0.00 0.00 15 1017.1
20260507090208 63 0.0 0.0 0.00 0.00 0.00 16 1017.1
20260507085208 65 0.0 0.0 0.00 0.00 0.00 15 1017.1
20260507084707 65 0.0 0.0 0.00 0.00 0.00 15 1017.1
20260507083708 64 0.0 0.0 0.00 0.00 0.00 16 1017.1
20260507083208 63 0.0 0.0 0.00 0.00 0.00 16 1017.1
20260507082208 61 0.0 0.0 0.00 0.00 0.00 16 1017.1
20260507075207 58 0.0 0.0 0.00 0.00 0.00 19 1017.1
20260507074707 57 0.0 0.0 0.00 0.00 0.00 22 1017.1
20260507073707 56 0.0 0.0 0.00 0.00 0.00 25 1017.1
20260507073207 55 0.0 0.0 0.00 0.00 0.00 25 1017.1
20260507072208 56 0.0 0.0 0.00 0.00 0.00 27 1017.1
20260507071708 57 0.0 0.0 0.00 0.00 0.00 30 1017.1
20260507070706 55 0.0 0.0 0.00 0.00 0.00 35 1017.1
20260507070208 54 0.0 0.0 0.00 0.00 0.00 35 1017.1
20260507065207 53 0.0 0.0 0.00 0.00 0.00 36 1017.1
20260507064708 53 0.0 0.0 0.00 0.00 0.00 36 1017.1
20260507063707 53 0.0 0.0 0.00 0.00 0.00 37 1017.1
20260507062208 52 0.0 0.0 0.00 0.00 0.00 37 1016.0
20260507060707 51 0.0 0.0 0.00 0.00 0.00 37 1016.0
20260507055208 51 0.0 0.0 0.00 0.00 0.00 37 1016.0
20260507053707 50 0.0 0.0 0.00 0.00 0.00 37 1016.0
20260507052209 50 0.0 0.0 0.00 0.00 0.00 37 1016.0
20260507045706 50 0.0 0.0 0.00 0.00 0.00 37 1016.0
20260507045207 49 0.0 0.0 0.00 0.00 0.00 37 1016.0
20260507044209 49 0.0 0.0 0.00 0.00 0.00 37 1016.0
20260507043707 49 0.0 0.0 0.00 0.00 0.00 37 1016.0
20260507042707 49 0.0 0.0 0.00 0.00 0.00 37 1016.0
20260507042208 49 0.0 0.0 0.00 0.00 0.00 37 1016.0
20260507041206 49 0.0 0.0 0.00 0.00 0.00 37 1016.0
20260507035208 49 0.0 0.0 0.00 0.00 0.00 37 1016.0
20260507033706 49 0.0 0.0 0.00 0.00 0.00 37 1015.0
20260507032209 49 0.0 0.0 0.00 0.00 0.00 37 1015.0
20260507031208 49 0.0 0.0 0.00 0.00 0.00 37 1015.0
20260507030708 49 0.0 0.0 0.00 0.00 0.00 37 1015.0
20260507025707 49 0.0 0.0 0.00 0.00 0.00 37 1016.0
20260507024206 49 0.0 0.0 0.00 0.00 0.00 36 1015.0
20260507023707 49 0.0 0.0 0.00 0.00 0.00 36 1015.0
20260507022708 49 0.0 0.0 0.00 0.00 0.00 36 1015.0
20260507021208 49 0.0 0.0 0.00 0.00 0.00 36 1015.0
20260507015708 50 0.0 0.0 0.00 0.00 0.00 36 1015.0
20260507012707 49 0.0 0.0 0.00 0.00 0.00 36 1015.0
20260507011208 49 0.0 0.0 0.00 0.00 0.00 35 1015.0
20260507005708 49 0.0 0.0 0.00 0.00 0.00 35 1015.0
20260507004707 49 0.0 0.0 0.00 0.00 0.00 35 1015.0
20260507004207 49 0.0 0.0 0.00 0.00 0.00 34 1015.0
20260507002708 49 0.0 0.0 0.00 0.00 0.00 34 1015.0
20260506235708 50 0.0 0.0 0.00 0.00 0.00 34 1015.0
20260506234707 50 0.0 0.0 0.00 0.00 0.00 34 1015.0
20260506234209 50 0.0 0.0 0.00 0.00 0.00 34 1015.0
20260506231707 50 0.0 0.0 0.00 0.00 0.00 34 1013.9
20260506231207 50 0.0 0.0 0.00 0.00 0.00 34 1013.9
20260506230208 50 0.0 0.0 0.00 0.00 0.00 33 1013.9
20260506225706 50 0.0 0.0 0.00 0.00 0.00 33 1013.9
20260506224708 50 0.0 0.0 0.00 0.00 0.00 33 1013.9
20260506223208 50 0.0 0.0 0.00 0.00 0.00 33 1013.9
20260506222706 50 0.0 0.0 0.00 0.00 0.00 32 1013.9
20260506220208 50 0.0 0.0 0.00 0.00 0.00 32 1013.9
20260506215707 50 0.0 0.0 0.00 0.00 0.00 32 1013.9
20260506214708 50 0.0 0.0 0.00 0.00 0.00 31 1013.9
20260506214207 50 0.0 0.0 0.00 0.00 0.00 31 1013.9
20260506213208 50 0.0 0.0 0.00 0.00 0.00 31 1013.9
20260506211708 50 0.0 0.0 0.00 0.00 0.00 31 1013.9
20260506204708 50 0.0 0.0 0.00 0.00 0.00 30 1015.0
20260506203208 50 0.0 0.0 0.00 0.00 0.00 29 1013.9
20260506201707 50 0.0 0.0 0.00 0.00 0.00 29 1013.9
20260506200708 50 0.0 0.0 0.00 0.00 0.00 28 1013.9
20260506200208 50 0.0 0.0 0.00 0.00 0.00 28 1013.9
20260506195206 51 0.0 0.0 0.00 0.00 0.00 28 1013.9
20260506194707 51 0.0 0.0 0.00 0.00 0.00 29 1013.9
20260506193708 51 0.0 0.0 0.00 0.00 0.00 28 1012.9
20260506192208 51 0.0 0.0 0.00 0.00 0.00 28 1013.9
20260506191707 51 0.0 0.0 0.00 0.00 0.00 28 1013.9
20260506190707 51 0.0 0.0 0.00 0.00 0.00 28 1013.9
20260506190208 51 0.0 0.0 0.00 0.00 0.00 28 1013.9
20260506185206 51 0.0 0.0 0.00 0.00 0.00 29 1013.9
20260506184707 51 0.0 0.0 0.00 0.00 0.00 29 1013.9
20260506183708 51 0.0 0.0 0.00 0.00 0.00 29 1013.9
20260506183208 51 0.0 0.0 0.00 0.00 0.00 29 1013.9
20260506182207 51 0.0 0.0 0.00 0.00 0.00 29 1012.9
20260506181707 51 0.0 0.0 0.00 0.00 0.00 29 1012.9
20260506180706 52 0.0 0.0 0.00 0.00 0.00 28 1012.9
20260506180209 52 0.0 0.0 0.00 0.00 0.00 28 1012.9
20260506175207 52 0.0 0.0 0.00 0.00 0.00 27 1012.9
20260506174707 53 0.0 0.0 0.00 0.00 0.00 27 1012.9
20260506173707 53 0.0 0.0 0.00 0.00 0.00 27 1011.8